Airfield :
LOGIN :

Register | Disclaimer

   EN    FR    IT 

 










Legend :    VFR   Marginal VFR   IFR   Intensive IFR   Very Intensive IFR
Visi :
Ceiling :
>= 8 km
>= 3000ft
5 to 8 km
1000 to 3000 ft
1500m to 5 km
500 to 1000 ft
800 to 1500m
200 to 500 ft
< 800m
< 200 ft
Symbols :   Thunderstorms  Fog  Heavy snow  Heavy precipitations  Wind > 20 kt
SIGMETs :     Misc.  Thunderstorms  Icing  Turbulence  Mountain Waves  Volcanic Ashes






- Airport Elevation : 1708 ft
- IATA code : SJJ


LQSA - Sarajevo

CURRENT METAR :
  • 300100Z 23002KT 5000 BR FEW035 BKN050 09/09 Q1023

EXPIRED METARs :
  • 300000Z VRB02KT 5000 BR FEW035 BKN050 09/09 Q1022
  • 292300Z 35002KT 5000 BR FEW035 BKN050 09/09 Q1022

TAF TAF LQSA
Valid from the 30 at 00:00 until the 31 at 00:00 UTC


292300Z 3000/3024 VRB02KT 9999 SCT040 TX14/3014Z TN06/3005Z
TEMPO 3000/3009 3000 BR
PROB30
TEMPO 3003/3007 0600 FG BKN003



MET'MAP, your aeronautical weather chart ! - Copyright ORBIFLY December 2007 - Disclaimer

ORBIFLY MET'MAP TEAM :

Programming & Development : Alexandra Zaïnal
Concept & original design : Baudouin d'Aumeries
Assistance for programming : Marc-Olivier Méhu
Technical & hardware support : Manuel Goepfert

Contact : metmap@orbifly.com




SOURCES & CREDITS :

   NOAA